Weather History for Provincetown, MA

Change the Weather History Date:

Sunday, November 17, 2013

  Actual Average Record
Temperature  
Mean Temperature 44 °F -  
Max Temperature 59 °F 47 °F 66 °F (1951)
Min Temperature 30 °F 37 °F 30 °F (1997)
Degree Days  
Heating Degree Days 20    
Moisture  
Dew Point 45 °F    
Average Humidity 87    
Maximum Humidity 100    
Minimum Humidity 55    
Precipitation  
Precipitation 0.10 in - - ()
Sea Level Pressure  
Sea Level Pressure 30.21 in    
Wind  
Wind Speed 5 mph (SSE)    
Max Wind Speed 15 mph    
Max Gust Speed 22 mph    
Visibility 6 miles    
Events      
Averages and records for this station are not official NWS values.
T = Trace of Precipitation, MM = Missing Value Source: NWS Daily Summary

Daily Weather History Graph

Daily Weather History Graph

Search for Another Location

Airport:

Trip Planner

Search our weather history database for the weather conditions in past years. The results will help you decide how hot, cold, wet, or windy it might be!

Date:

Astronomy

Nov. 17, 2013 Rise Set
Actual Time 6:33 AM EST 4:17 PM EST
Civil Twilight 6:03 AM EST 4:47 PM EST
Nautical Twilight 5:29 AM EST 5:21 PM EST
Astronomical Twilight 4:56 AM EST 5:55 PM EST
Moon 4:32 PM EST (11/17) 6:24 AM EST (11/17)
Length of Visible Light 10h 44m
Length of Day
9h 44m
Full, 100% of the Moon is Illuminated
Nov 17
Full
Nov 25
Last Quarter
Dec 2
New
Dec 9
First Quarter
Dec 17
Full

Hourly Weather History & Observations

Time (EST) Temp. Windchill Dew Point Humidity Pressure Visibility Wind Dir Wind Speed Gust Speed Precip Events Conditions
12:15 AM 35.6 °F - 33.8 °F 93% 30.33 in 0.5 mi Calm Calm - N/A   Unknown
12:35 AM 35.6 °F - 32.0 °F 87% 30.33 in 1.0 mi Calm Calm - 0.01 in   Clear
12:55 AM 33.8 °F - 33.8 °F 100% 30.33 in 0.8 mi Calm Calm - 0.01 in   Unknown
1:15 AM 33.8 °F - 30.2 °F 87% 30.33 in 0.5 mi Calm Calm - N/A   Unknown
1:35 AM 32.0 °F - 30.2 °F 93% 30.33 in 0.5 mi Calm Calm - N/A   Unknown
1:55 AM 32.0 °F - 30.2 °F 93% 30.33 in 1.5 mi Calm Calm - 0.01 in   Unknown
2:15 AM 30.2 °F 26.7 °F 30.2 °F 100% 30.32 in 1.0 mi SSE 3.5 mph - N/A   Clear
2:35 AM 32.0 °F - 30.2 °F 93% 30.32 in 1.8 mi Calm Calm - N/A   Clear
2:55 AM 32.0 °F 28.7 °F 30.2 °F 93% 30.31 in 0.5 mi SSE 3.5 mph - N/A   Unknown
3:15 AM 32.0 °F - 28.4 °F 87% 30.31 in 0.2 mi Calm Calm - N/A   Unknown
3:35 AM 32.0 °F 27.5 °F 30.2 °F 93% 30.31 in 0.2 mi SSE 4.6 mph - N/A   Mostly Cloudy
3:55 AM 32.0 °F 28.7 °F 30.2 °F 93% 30.31 in 0.2 mi SSE 3.5 mph - N/A   Mostly Cloudy
4:15 AM 33.8 °F 30.8 °F 32.0 °F 93% 30.31 in 0.2 mi SSE 3.5 mph - N/A   Mostly Cloudy
4:35 AM 33.8 °F - 33.8 °F 100% 30.31 in 0.2 mi Calm Calm - N/A   Overcast
4:55 AM 37.4 °F 34.9 °F 35.6 °F 93% 30.32 in 0.2 mi SSE 3.5 mph - 0.01 in   Overcast
5:15 AM 39.2 °F 35.0 °F 37.4 °F 93% 30.32 in 0.2 mi SSE 5.8 mph - N/A   Overcast
5:35 AM 39.2 °F 37.0 °F 37.4 °F 93% 30.32 in 0.2 mi South 3.5 mph - 0.01 in   Mostly Cloudy
5:55 AM 39.2 °F 35.0 °F 39.2 °F 100% 30.33 in 1.2 mi South 5.8 mph - 0.01 in   Mostly Cloudy
6:15 AM 44.6 °F 43.1 °F 42.8 °F 93% 30.33 in 8.0 mi South 3.5 mph - N/A   Overcast
6:35 AM 44.6 °F - 44.6 °F 100% 30.34 in 8.0 mi Calm Calm - N/A   Overcast
6:55 AM 44.6 °F 43.1 °F 42.8 °F 93% 30.33 in 9.0 mi ESE 3.5 mph - 0.01 in   Overcast
7:15 AM 46.4 °F 44.3 °F 44.6 °F 93% 30.32 in 10.0 mi ESE 4.6 mph - N/A   Overcast
7:35 AM 46.4 °F 42.9 °F 46.4 °F 100% 30.31 in 10.0 mi SE 6.9 mph - N/A   Overcast
7:55 AM 48.2 °F - 46.4 °F 93% 30.31 in 10.0 mi SE 6.9 mph - N/A   Overcast
8:15 AM 48.2 °F - 46.4 °F 93% 30.31 in 10.0 mi SE 5.8 mph - N/A   Overcast
8:35 AM 48.2 °F - 46.4 °F 93% 30.31 in 10.0 mi SE 8.1 mph - N/A   Overcast
8:55 AM 50.0 °F - 46.4 °F 87% 30.31 in 10.0 mi SE 9.2 mph - 0.01 in   Overcast
9:15 AM 51.8 °F - 46.4 °F 82% 30.30 in 10.0 mi SE 8.1 mph - N/A   Scattered Clouds
9:35 AM 51.8 °F - 46.4 °F 82% 30.31 in 10.0 mi SSE 6.9 mph - 0.01 in   Scattered Clouds
9:55 AM 53.6 °F - 46.4 °F 77% 30.29 in 10.0 mi SSE 10.4 mph - 0.01 in   Partly Cloudy
10:15 AM 55.4 °F - 46.4 °F 72% 30.29 in 10.0 mi SSE 10.4 mph 16.1 mph N/A   Clear
10:35 AM 55.4 °F - 46.4 °F 72% 30.30 in 10.0 mi SSE 9.2 mph - N/A   Partly Cloudy
10:55 AM 55.4 °F - 46.4 °F 72% 30.29 in 10.0 mi SSE 12.7 mph 16.1 mph 0.01 in   Mostly Cloudy
11:15 AM 55.4 °F - 46.4 °F 72% 30.28 in 10.0 mi SE 9.2 mph 18.4 mph 0.01 in   Overcast
11:35 AM 57.2 °F - 44.6 °F 63% 30.26 in 10.0 mi SSE 11.5 mph 20.7 mph 0.01 in   Overcast
11:55 AM 57.2 °F - 44.6 °F 63% 30.25 in 10.0 mi SSE 10.4 mph 17.3 mph 0.01 in   Scattered Clouds
12:15 PM 59.0 °F - 42.8 °F 55% 30.24 in 10.0 mi SSE 15.0 mph 18.4 mph 0.01 in   Partly Cloudy
12:35 PM 59.0 °F - 42.8 °F 55% 30.23 in 10.0 mi SE 10.4 mph 17.3 mph 0.01 in   Clear
12:55 PM 59.0 °F - 42.8 °F 55% 30.23 in 10.0 mi SSE 11.5 mph - 0.01 in   Scattered Clouds
1:15 PM 57.2 °F - 42.8 °F 59% 30.22 in 10.0 mi SSE 9.2 mph 16.1 mph N/A   Mostly Cloudy
1:35 PM 57.2 °F - 42.8 °F 59% 30.21 in 10.0 mi SSE 9.2 mph - N/A   Mostly Cloudy
1:55 PM 57.2 °F - 42.8 °F 59% 30.20 in 10.0 mi SSE 10.4 mph 16.1 mph N/A   Mostly Cloudy
2:15 PM 57.2 °F - 44.6 °F 63% 30.20 in 10.0 mi SSE 9.2 mph - N/A   Mostly Cloudy
2:35 PM 55.4 °F - 44.6 °F 67% 30.20 in 10.0 mi SSE 10.4 mph 17.3 mph N/A   Overcast
2:55 PM 53.6 °F - 46.4 °F 77% 30.20 in 10.0 mi SSE 10.4 mph - N/A   Overcast
3:15 PM 53.6 °F - 46.4 °F 77% 30.19 in 10.0 mi SSE 8.1 mph - N/A   Overcast
3:35 PM 51.8 °F - 48.2 °F 88% 30.19 in 9.0 mi SSE 8.1 mph - N/A   Overcast
3:55 PM 51.8 °F - 48.2 °F 88% 30.17 in 3.0 mi SE 10.4 mph - N/A   Overcast
4:15 PM 51.8 °F - 50.0 °F 94% 30.16 in 5.0 mi SE 9.2 mph - N/A   Overcast
4:35 PM 51.8 °F - 51.8 °F 100% 30.16 in 10.0 mi SE 10.4 mph 16.1 mph N/A   Overcast
4:55 PM 51.8 °F - 51.8 °F 100% 30.14 in 5.0 mi SE 11.5 mph 16.1 mph N/A   Overcast
5:15 PM 51.8 °F - 50.0 °F 94% 30.13 in 4.0 mi SE 10.4 mph - N/A   Overcast
5:35 PM 51.8 °F - 51.8 °F 100% 30.12 in 3.0 mi ESE 12.7 mph - N/A   Overcast
5:55 PM 53.6 °F - 51.8 °F 94% 30.11 in 3.0 mi ESE 12.7 mph 18.4 mph N/A   Overcast
6:15 PM 53.6 °F - 51.8 °F 94% 30.10 in 7.0 mi SE 12.7 mph 18.4 mph N/A   Overcast
6:35 PM 53.6 °F - 53.6 °F 100% 30.09 in 7.0 mi SE 10.4 mph 20.7 mph N/A   Overcast
6:55 PM 53.6 °F - 53.6 °F 100% 30.08 in 10.0 mi SE 15.0 mph 18.4 mph N/A   Overcast
7:15 PM 53.6 °F - 51.8 °F 94% 30.07 in 10.0 mi SSE 13.8 mph 21.9 mph N/A   Overcast
7:35 PM 53.6 °F - 51.8 °F 94% 30.06 in 8.0 mi SSE 13.8 mph 19.6 mph N/A   Overcast
7:55 PM 53.6 °F - 53.6 °F 100% 30.06 in 7.0 mi SSE 11.5 mph 19.6 mph N/A   Overcast
8:15 PM 55.4 °F - 53.6 °F 94% 30.05 in 7.0 mi SSE 9.2 mph 16.1 mph N/A   Overcast
8:35 PM 55.4 °F - 53.6 °F 94% 30.04 in 5.0 mi SSE 10.4 mph 18.4 mph N/A   Overcast
8:55 PM 55.4 °F - 53.6 °F 94% 30.02 in 5.0 mi SSE 10.4 mph 16.1 mph N/A   Overcast
9:15 PM 55.4 °F - 53.6 °F 94% 30.01 in 7.0 mi South 11.5 mph 18.4 mph N/A   Overcast
9:35 PM 55.4 °F - 53.6 °F 94% 30.01 in 6.0 mi South 11.5 mph 18.4 mph N/A   Overcast
9:55 PM 55.4 °F - 53.6 °F 94% 30.00 in 4.0 mi South 11.5 mph 17.3 mph N/A   Overcast
10:15 PM 55.4 °F - 53.6 °F 94% 29.98 in 5.0 mi South 9.2 mph - N/A   Overcast
10:35 PM 55.4 °F - 53.6 °F 94% 29.96 in 3.0 mi South 11.5 mph - N/A   Overcast
10:55 PM 55.4 °F - 53.6 °F 94% 29.95 in 3.0 mi South 10.4 mph - N/A   Overcast
11:15 PM 55.4 °F - 55.4 °F 100% 29.94 in 2.5 mi South 10.4 mph 16.1 mph N/A   Overcast
11:35 PM 55.4 °F - 55.4 °F 100% 29.92 in 1.5 mi South 9.2 mph - N/A   Overcast
11:55 PM 55.4 °F - 55.4 °F 100% 29.91 in 1.0 mi South 9.2 mph - N/A   Overcast